DateTimeUTC,F1_A11,F1_S11,BsB_S11,BsG_S11,BsR_S11,BbsB_S11,BbsG_S11,BbsR_S11,BaB_A11,BaG_A11,BaR_A11,Tu_S11,T_S11,Uu_S11,U_S11,P_S11,T1_A11
2021-03-03T05:00:00Z,00000200,21000000,,,,,,,-000.13,-000.35,-000.11,16.9,23.9,,00.0,0658.5,30.9
2021-03-03T05:01:00Z,00000200,21000000,,,,,,,-000.12,-000.36,-000.08,16.9,23.9,,00.0,0658.6,30.9
2021-03-03T05:02:00Z,00000200,21000000,,,,,,,-000.04,0000.59,0000.20,16.9,24.0,,00.0,0658.6,30.9
2021-03-03T05:03:00Z,00000200,61000000,,,,,,,0000.46,0000.45,0000.25,16.9,24.0,,00.0,0658.6,30.9
2021-03-03T05:04:00Z,00000200,41000000,0002.91,0002.12,0001.17,0000.45,0000.15,0000.13,0000.27,0000.44,0000.06,17.0,23.8,,00.0,0659.5,30.9
2021-03-03T05:05:00Z,00000200,01000000,0003.90,0002.27,0001.46,0000.60,0000.35,0000.22,0000.64,0000.32,0000.20,17.1,23.8,,00.0,0659.6,30.8
2021-03-03T05:06:00Z,00000200,01000000,0003.90,0002.35,0001.09,0000.41,0000.27,0000.12,0000.59,0000.56,0000.75,17.0,23.8,,00.0,0659.6,30.8
2021-03-03T05:07:00Z,00000200,01000000,0003.99,0002.31,0001.12,0000.86,0000.44,0000.16,0000.52,0000.49,0000.10,16.9,23.7,,00.0,0659.6,30.8
2021-03-03T05:08:00Z,00000200,01000000,0003.63,0002.13,0001.06,0000.36,0000.28,0000.07,0000.51,0000.34,0000.05,16.9,23.7,,00.0,0659.6,30.8
2021-03-03T05:09:00Z,00000200,01000000,0003.58,0002.16,0001.02,0000.35,0000.52,0000.21,0000.50,0000.38,0000.49,16.8,23.6,,00.0,0659.7,30.8
2021-03-03T05:10:00Z,00000200,01000000,0003.13,0002.43,0001.24,0000.36,0000.37,0000.22,0000.79,0000.52,0000.63,16.8,23.6,,00.0,0659.7,30.8
2021-03-03T05:11:00Z,00000200,01000000,0003.00,0001.97,0001.23,0000.56,0000.41,0000.14,0000.20,0000.45,0000.18,16.8,23.6,,00.0,0659.7,30.8
2021-03-03T05:12:00Z,00000200,01000000,0003.99,0002.11,0001.12,0000.16,0000.23,0000.16,0000.53,0000.69,0000.24,16.7,23.6,,00.0,0659.7,30.8
2021-03-03T05:13:00Z,00000200,01000000,0003.90,0002.28,0001.40,0000.34,0000.51,0000.11,0000.39,0000.25,0000.20,16.7,23.5,,00.0,0659.7,30.8
2021-03-03T05:14:00Z,00000200,01000000,0003.08,0002.05,0001.47,0000.49,0000.31,0000.38,0000.70,0000.58,0000.63,16.6,23.5,,00.0,0659.7,30.8
2021-03-03T05:15:00Z,00000200,01000000,0003.67,0002.27,0001.10,0000.39,0000.50,0000.31,0000.08,-000.00,0000.22,16.6,23.5,,00.0,0659.8,30.8
2021-03-03T05:16:00Z,00000200,01000000,0002.47,0002.15,0000.95,0000.00,0000.31,0000.21,0000.76,0000.38,0000.33,16.6,23.4,,00.0,0659.8,30.8
2021-03-03T05:17:00Z,00000200,01000000,0003.73,0002.22,0001.19,0000.33,0000.21,0000.20,0000.42,0000.54,0000.32,16.6,23.4,,00.0,0659.8,30.8
2021-03-03T05:18:00Z,00000200,01000000,0003.52,0002.57,0001.37,0000.15,0000.36,0000.27,0000.53,0000.16,0000.21,16.6,23.4,,00.0,0659.8,30.8
2021-03-03T05:19:00Z,00000200,01000000,0003.55,0002.20,0001.41,0000.22,0000.53,0000.23,0000.69,0000.58,0000.36,16.6,23.4,,00.0,0659.8,30.8
2021-03-03T05:20:00Z,00000200,01000000,0003.42,0002.31,0001.19,0000.72,0000.45,0000.39,0000.48,0000.76,0000.52,16.7,23.5,,00.0,0659.9,30.8
2021-03-03T05:21:00Z,00000200,01000000,0003.20,0002.35,0001.47,0000.44,0000.41,0000.42,0000.62,0000.68,0000.29,16.8,23.5,,00.0,0659.9,30.8
2021-03-03T05:22:00Z,00000200,01000000,0003.40,0002.26,0001.09,0000.44,0000.27,0000.27,0000.53,0000.21,0000.27,16.8,23.6,,00.0,0660.0,30.8
2021-03-03T05:23:00Z,00000200,01000000,0004.12,0002.16,0001.02,0000.05,0000.36,0000.18,0000.68,0000.48,0000.31,16.9,23.6,,00.0,0660.0,30.8
2021-03-03T05:24:00Z,00000200,01000000,0003.20,0002.23,0001.11,0000.38,0000.37,0000.20,0000.29,0000.56,0000.51,17.0,23.6,,00.0,0660.0,30.8
2021-03-03T05:25:00Z,00000200,01000000,0004.19,0002.09,0001.32,0000.64,0000.13,0000.44,0000.68,0000.19,0000.19,17.0,23.7,,00.0,0660.0,30.8
2021-03-03T05:26:00Z,00000200,01000000,0003.27,0002.14,0001.25,0000.27,0000.47,0000.09,0000.57,0000.93,0000.95,17.1,23.7,,00.0,0660.0,30.8
2021-03-03T05:27:00Z,00000200,01000000,0003.49,0002.41,0001.30,0000.55,0000.31,0000.18,0000.66,0000.50,0000.09,17.1,23.7,,00.0,0660.0,30.9
2021-03-03T05:28:00Z,00000200,01000000,0003.86,0002.15,0001.51,0000.61,0000.35,0000.26,0000.45,0000.35,0000.23,17.2,23.8,,00.0,0660.0,30.9
2021-03-03T05:29:00Z,00000200,01000000,0003.24,0002.28,0000.91,0000.39,0000.39,0000.04,0000.37,0000.59,0000.70,17.2,23.8,,00.0,0660.0,30.9
2021-03-03T05:30:00Z,00000200,01000000,0003.59,0002.24,0001.20,0000.27,0000.45,-000.04,0000.85,0000.82,0000.20,17.1,23.7,,00.0,0660.0,30.9
2021-03-03T05:31:00Z,00000200,01000000,0003.88,0002.28,0001.15,0000.41,0000.35,0000.25,0000.28,0000.28,0000.11,17.1,23.7,,00.0,0660.1,30.8
2021-03-03T05:32:00Z,00000200,01000000,0003.35,0001.94,0001.17,0000.22,0000.51,0000.18,0000.59,0000.37,0000.03,17.1,23.7,,00.0,0660.2,30.8
2021-03-03T05:33:00Z,00000200,01000000,0003.49,0001.79,0001.35,0000.85,0000.16,0000.11,0000.45,0000.44,0000.55,17.0,23.7,,00.0,0660.2,30.8
2021-03-03T05:34:00Z,00000200,01000000,0003.48,0002.21,0001.12,0000.54,0000.29,0000.02,0000.76,0000.63,0000.19,16.9,23.6,,00.0,0660.3,30.8
2021-03-03T05:35:00Z,00000200,01000000,0003.52,0002.17,0001.22,0000.31,0000.43,0000.05,0000.32,0000.33,0000.41,16.9,23.6,,00.0,0660.3,30.8
2021-03-03T05:36:00Z,00000200,01000000,0003.69,0001.86,0001.17,0000.66,0000.28,0000.42,0000.44,0000.48,0000.42,16.8,23.6,,00.0,0660.3,30.8
2021-03-03T05:37:00Z,00000200,01000000,0003.55,0002.19,0001.23,0000.25,0000.19,0000.22,0000.47,0000.59,0000.50,16.8,23.6,,00.0,0660.3,30.8
2021-03-03T05:38:00Z,00000200,01000000,0003.30,0002.32,0001.40,0000.27,0000.24,0000.22,0000.62,0000.18,0000.31,16.7,23.6,,00.0,0660.3,30.8
2021-03-03T05:39:00Z,00000200,01000000,0003.56,0002.17,0001.24,0000.37,0000.32,0000.34,0000.37,0000.41,0000.36,16.7,23.5,,00.0,0660.3,30.8
2021-03-03T05:40:00Z,00000200,01000000,0003.60,0002.41,0001.14,0000.35,0000.47,0000.28,0000.73,0000.89,0000.35,16.7,23.5,,00.0,0660.3,30.8
2021-03-03T05:41:00Z,00000200,01000000,0003.75,0002.21,0001.36,0000.64,0000.50,0000.05,0000.26,0000.34,0000.08,16.6,23.5,,00.0,0660.4,30.8
2021-03-03T05:42:00Z,00000200,01000000,0003.22,0002.19,0001.20,0000.01,0000.26,0000.13,0000.73,0000.39,0000.62,16.6,23.4,,00.0,0660.4,30.8
2021-03-03T05:43:00Z,00000200,01000000,0004.09,0002.11,0001.14,0000.29,0000.46,-000.04,0000.68,0000.60,0000.33,16.5,23.4,,00.0,0660.4,30.8
2021-03-03T05:44:00Z,00000200,01000000,0003.59,0001.99,0001.28,-000.06,0000.36,0000.03,0000.07,0000.36,0000.10,16.5,23.4,,00.0,0660.4,30.8
2021-03-03T05:45:00Z,00000200,01000000,0003.04,0002.23,0001.03,0000.41,0000.19,0000.25,0000.46,0000.19,0000.40,16.5,23.4,,00.0,0660.5,30.8
2021-03-03T05:46:00Z,00000200,01000000,0003.26,0002.10,0001.18,0000.21,0000.34,0000.10,0000.40,0000.47,0000.00,16.4,23.3,,00.0,0660.5,30.8
2021-03-03T05:47:00Z,00000200,01000000,0003.22,0001.97,0001.34,0000.33,0000.44,0000.44,0000.62,0000.50,0000.51,16.5,23.3,,00.0,0660.4,30.8
2021-03-03T05:48:00Z,00000200,01000000,0003.89,0002.16,0001.33,0000.32,0000.36,0000.04,0000.78,0000.15,0000.59,16.5,23.3,,00.0,0660.5,30.8
2021-03-03T05:49:00Z,00000200,01000000,0003.76,0002.34,0001.12,0000.27,0000.54,0000.09,0000.53,0000.82,0000.40,16.6,23.4,,00.0,0660.5,30.8
2021-03-03T05:50:00Z,00000200,01000000,0004.26,0002.51,0001.16,0000.57,0000.48,0000.33,0000.54,0000.34,0000.51,16.6,23.4,,00.0,0660.5,30.8
2021-03-03T05:51:00Z,00000200,01000000,0004.14,0002.30,0001.13,0000.21,0000.19,0000.28,0000.73,0000.68,0000.24,16.7,23.4,,00.0,0660.5,30.8
2021-03-03T05:52:00Z,00000200,01000000,0004.28,0002.19,0001.41,0000.57,0000.36,0000.18,0000.40,0000.20,0000.13,16.8,23.5,,00.0,0660.5,30.8
2021-03-03T05:53:00Z,00000200,01000000,0003.41,0001.96,0001.23,0000.94,0000.48,0000.06,0000.54,0000.69,0000.70,16.8,23.5,,00.0,0660.5,30.8
2021-03-03T05:54:00Z,00000200,01000000,0003.82,0002.11,0001.08,0000.60,0000.34,0000.25,0000.52,0000.68,0000.16,16.9,23.5,,00.0,0660.5,30.8
2021-03-03T05:55:00Z,00000200,01000000,0003.77,0001.98,0001.30,0000.09,0000.38,0000.17,0000.64,0000.45,0000.47,16.9,23.6,,00.0,0660.4,30.8
2021-03-03T05:56:00Z,00000200,01000000,0003.64,0002.13,0001.45,0000.35,0000.47,0000.33,0000.75,0000.28,0000.56,17.0,23.6,,00.0,0660.5,30.8
2021-03-03T05:57:00Z,00000200,41000000,,,,,,,0000.33,0000.65,0000.13,17.1,23.7,,00.0,0660.5,30.9
2021-03-03T05:58:00Z,00000200,61000000,,,,,,,-000.35,-000.01,0000.02,16.9,23.8,,00.0,0659.5,30.9
2021-03-03T05:59:00Z,00000200,21000000,,,,,,,0000.01,-000.03,-000.22,16.8,23.9,,00.0,0659.5,30.9
